Temperature
20 20 21 21 21 21 20 19 18 19 19 19 19 19 20 21 21 21 21 21 21 21 21 21 20 20 19 19 18 18 17 17 16 16 16 15 15 15 15 14 14 14 14 14
19 20 20 20 20 20 20 20 19 19 19 19 19 20 20 20 20 20 21 21 21 21 21 20 20 20 19 19 18 18 17 17 17 16 16 15 15 15 15 15 14 14 14 14
17 18 20 19 20 20 20 19 19 18 19 18 19 19 19 19 19 20 20 20 20 21 21 21 20 20 20 19 19 18 18 17 17 16 16 16 15 15 15 15 14 14 14 14
16 18 19 19 19 20 19 18 18 18 18 18 18 19 19 19 19 19 19 20 20 20 21 21 20 20 20 19 19 18 18 17 17 17 16 16 15 15 15 15 14 14 14 14
15 17 18 19 20 20 19 17 17 17 17 18 19 19 18 18 19 19 19 19 20 20 20 20 20 20 19 19 19 18 18 18 17 17 16 16 16 15 15 15 14 14 14 14
15 17 17 18 19 20 18 16 17 17 16 17 17 14 15 18 18 19 19 19 19 20 20 20 20 19 19 19 18 18 18 18 18 17 17 16 16 16 15 15 14 14 14 14
15 15 16 17 18 18 16 15 16 16 16 16 15 15 17 17 17 18 18 18 19 19 19 19 19 19 19 18 18 18 18 18 17 17 17 16 16 16 15 15 14 14 14 13
14 15 15 16 16 15 15 16 16 16 16 16 16 16 16 16 17 17 17 17 18 18 18 18 18 18 18 18 18 18 18 18 17 17 17 17 16 16 15 15 14 14 13 13
14 14 15 16 16 16 16 16 16 16 15 16 15 15 15 16 16 16 16 16 16 17 17 18 17 17 17 18 18 18 17 17 17 17 17 17 16 16 15 15 14 14 13 13
13 14 14 15 15 15 15 15 15 15 15 15 15 14 14 15 15 15 15 15 15 16 16 17 17 17 17 17 17 17 17 17 17 17 17 16 16 16 15 15 14 14 13 13
12 12 14 14 14 14 14 14 14 14 14 14 14 13 13 13 13 14 14 14 14 15 15 15 16 16 16 16 16 16 17 17 16 16 16 16 16 16 15 15 15 14 14 14
12 13 12 13 13 14 13 13 13 13 13 13 13 12 12 12 13 13 13 13 13 14 14 15 15 15 15 15 15 15 16 16 16 16 16 16 16 15 15 14 14 14 13 13
14 14 13 13 13 13 13 13 12 12 12 12 12 11 11 11 11 12 12 12 12 13 13 14 14 14 14 14 15 15 15 15 15 15 15 15 15 15 15 14 14 13 13 13
13 13 12 12 12 12 12 12 12 12 11 11 11 11 11 11 11 11 11 11 11 12 12 13 13 14 14 14 14 14 14 14 14 15 15 15 15 15 15 15 14 14 13 13
13 13 12 12 12 11 11 11 11 11 10 10 10 10 10 10 10 10 10 10 10 11 11 12 12 13 13 13 13 13 13 14 14 14 14 14 15 15 14 14 14 13 13 12
12 12 11 11 11 11 10 10 10 10 10 10 10 10 9 9 9 9 10 10 10 10 10 11 11 12 12 12 12 12 13 13 13 13 13 13 14 14 14 14 13 13 13 12
11 11 11 11 10 10 10 10 10 9 9 9 9 9 9 9 9 9 9 9 9 9 9 10 10 11 11 11 11 11 12 12 12 12 13 13 13 13 13 13 13 13 13 12
11 11 11 10 10 10 9 9 9 9 9 9 9 9 9 8 8 8 8 8 9 9 9 9 9 10 10 10 10 11 11 11 11 12 12 12 12 12 13 13 13 13 12 11
11 10 10 10 10 9 9 9 9 9 8 8 8 8 8 8 8 8 8 8 8 8 8 9 9 9 9 10 10 10 10 11 11 11 11 12 12 12 12 12 12 12 12 11
10 10 9 9 9 9 9 8 8 8 8 8 8 8 8 8 7 7 7 7 7 7 7 8 8 8 9 9 9 9 10 10 10 10 11 11 11 11 11 11 11 11 11 11
9 9 9 9 9 8 8 8 8 8 8 8 7 7 7 7 7 7 7 7 7 7 7 7 7 7 8 8 8 8 9 9 9 10 10 10 10 10 10 11 11 10 10 10
9 9 9 8 8 8 8 8 7 7 7 7 7 7 7 7 7 6 6 6 6 6 6 6 7 7 7 7 7 8 8 8 9 9 9 9 10 10 10 10 10 10 10 9
8 8 8 8 8 8 7 7 7 7 7 7 7 7 7 6 6 6 6 6 6 6 6 6 6 6 6 6 7 7 7 8 8 8 8 9 9 9 9 9 9 9 9 9
8 8 8 7 7 7 7 7 7 7 7 6 6 6 6 6 6 6 5 5 5 5 5 6 6 6 6 6 6 6 7 7 7 7 7 8 8 8 8 8 8 8 8 8
7 7 7 7 7 7 6 6 6 6 6 6 6 6 6 6 5 5 5 5 5 5 5 5 5 5 5 5 6 6 6 6 6 6 7 7 7 7 7 7 7 7 7 7
7 7 7 6 6 6 6 6 6 6 6 6 6 6 5 5 5 5 5 5 5 5 5 5 5 5 5 5 5 5 5 5 6 6 6 6 6 6 6 6 6 6 6 6
6 6 6 6 6 6 6 6 6 6 6 5 5 5 5 5 5 5 5 5 4 4 4 4 4 4 4 4 4 4 5 5 5 5 5 5 5 5 6 6 6 6 5 5
Wind_Speed
5 5 2 3 5 4 2 5 6 6 4 7 7 5 4 4 3 2 1 2 4 7 8 8 9 9 10 10 10 10 10 10 10 9 7 7 6 6 5 4 4 3 2 2
6 6 5 5 7 5 2 1 2 1 3 6 4 3 6 6 5 3 3 4 4 5 6 8 10 10 9 10 10 10 11 11 10 8 8 7 7 6 5 4 3 2 2 2
4 7 5 4 5 1 2 3 0 0 4 5 4 6 6 6 6 5 5 5 5 6 7 9 10 10 11 11 10 10 11 10 10 9 9 8 7 6 6 5 4 3 3 3
1 5 2 5 3 2 5 6 6 3 4 4 2 2 4 7 7 7 8 7 6 5 6 7 7 7 7 8 9 11 11 10 10 10 9 8 7 7 6 5 4 4 3 3
2 1 5 5 5 2 2 4 7 5 7 8 5 5 7 10 8 7 7 7 6 5 5 5 4 6 6 7 9 10 11 11 11 11 10 9 9 8 6 5 5 4 3 4
3 2 4 5 8 4 5 3 7 6 7 8 8 6 7 12 10 10 10 9 7 5 4 3 4 3 6 7 8 11 12 12 11 11 11 11 11 8 6 5 6 5 4 4
4 4 5 5 8 5 3 3 5 4 5 6 4 2 7 10 10 10 9 9 8 5 4 4 3 2 5 6 10 11 9 9 10 11 11 11 9 7 7 6 6 5 5 3
2 3 5 6 4 3 3 2 2 3 4 4 4 6 8 10 11 11 11 10 8 6 6 5 3 2 4 7 7 5 6 8 10 11 10 9 9 8 8 8 7 6 5 3
4 4 2 3 2 1 2 1 2 3 4 4 5 7 8 9 10 10 10 10 9 7 7 6 5 3 6 7 4 3 6 8 9 10 9 9 10 10 7 7 7 6 6 5
1 2 2 3 3 3 2 2 2 2 3 5 5 7 8 9 9 10 10 10 9 8 8 8 7 6 6 5 3 4 6 7 8 9 8 8 8 9 8 9 8 8 7 6
3 4 2 3 3 2 2 3 3 4 4 5 5 6 7 8 9 10 10 9 9 9 9 9 8 8 6 4 3 5 5 6 6 8 9 8 7 7 9 9 10 10 8 8
6 6 4 4 3 2 2 3 3 4 5 5 5 6 7 8 8 9 10 10 10 11 10 10 9 8 7 4 4 5 5 5 5 6 7 7 7 3 2 5 9 12 12 11
5 3 3 3 2 1 1 2 3 3 4 5 5 5 7 7 8 9 10 11 11 12 12 11 10 9 8 6 5 6 6 6 5 6 8 9 9 9 6 2 3 8 12 14
2 1 1 2 2 1 1 2 3 4 4 5 5 6 7 8 9 10 11 11 12 12 12 11 10 10 9 7 7 7 6 7 7 6 8 10 10 10 9 9 7 4 6 11
2 2 3 2 1 1 1 2 4 5 6 6 6 7 8 9 10 11 12 12 12 12 12 12 12 11 9 7 8 8 7 6 6 6 7 8 9 9 9 10 9 6 4 6
2 1 1 1 1 2 2 3 3 5 6 6 7 8 9 10 10 11 11 11 12 13 13 13 13 13 10 8 9 8 8 10 8 7 6 7 9 10 10 10 10 10 9 8
3 2 2 2 2 3 3 4 4 5 6 7 9 10 10 10 11 12 12 12 12 13 13 13 13 13 11 9 9 8 7 8 10 7 8 8 10 11 11 11 11 10 10 11
5 5 5 5 4 4 5 5 6 7 7 8 9 10 10 11 12 13 13 13 13 13 13 12 12 13 11 10 9 8 7 7 8 8 8 9 10 11 11 12 12 12 8 10
4 5 4 4 4 4 5 6 7 7 8 9 9 10 11 11 12 13 13 13 13 14 14 13 18 14 11 12 12 7 8 8 8 8 8 10 10 10 11 12 12 11 11 11
4 4 4 4 4 5 6 7 8 9 9 9 10 11 12 12 12 12 12 12 10 10 13 16 15 12 12 11 12 7 8 9 9 9 8 9 9 10 11 12 12 12 12 11
5 5 5 5 6 7 7 8 8 10 10 10 10 11 12 12 11 11 10 11 11 11 13 18 13 11 10 11 12 7 7 8 8 8 8 9 9 9 10 11 12 12 12 11
5 6 7 7 7 8 8 8 8 10 11 11 11 11 11 11 11 11 10 9 11 15 12 10 10 14 15 15 8 7 7 7 7 7 7 7 8 9 9 10 11 11 11 11
7 7 7 8 8 9 9 9 9 10 10 11 11 11 11 10 9 9 11 9 9 16 13 10 15 21 21 11 7 7 7 7 7 7 7 7 8 8 9 9 9 10 10 11
7 7 8 7 7 7 9 10 10 9 10 11 10 11 10 9 9 8 9 14 17 17 11 13 19 21 18 8 6 6 6 6 6 6 6 6 6 7 7 8 8 9 10 11
7 7 8 7 7 7 9 10 10 10 10 9 10 10 9 7 8 9 9 10 15 15 10 14 19 18 10 6 6 5 5 5 5 4 5 6 6 6 7 8 9 9 10 10
8 8 8 8 8 7 7 7 7 8 8 9 9 8 8 8 9 9 8 9 11 14 11 8 9 10 6 5 5 5 4 4 4 3 4 5 6 6 7 7 10 10 10 9
8 7 6 7 7 7 7 7 8 8 8 8 9 8 8 8 8 8 9 8 8 8 8 7 7 6 5 5 5 4 4 2 2 3 3 4 5 6 7 8 8 9 9 9
Wind_Direction
249 265 275 281 294 283 220 206 203 236 247 286 301 295 306 329 341 3 318 239 218 218 218 213 209 208 205 203 197 191 185 191 201 202 198 196 199 202 202 199 199 192 184 196
333 329 338 328 315 308 284 257 213 243 308 294 306 12 19 8 4 343 291 265 248 236 227 220 216 212 208 205 198 188 189 197 199 193 190 192 196 193 188 192 193 173 177 183
302 314 4 333 305 329 47 2 155 206 285 317 17 25 26 18 12 347 315 295 275 250 237 229 220 210 209 206 195 189 195 197 194 189 189 193 192 184 187 192 187 182 185 176
275 6 308 254 302 99 85 33 31 40 352 355 1 39 39 23 6 348 336 318 301 287 268 251 228 215 209 196 190 193 196 198 195 190 192 189 184 188 193 187 186 190 189 185
136 230 277 299 320 303 122 34 2 18 11 4 354 19 8 360 352 339 329 316 295 280 272 261 244 220 196 193 194 195 200 200 198 192 190 186 188 193 190 180 186 191 189 185
141 181 242 273 310 320 101 41 341 16 22 13 28 22 328 332 341 343 341 338 328 321 321 305 277 226 195 200 197 206 209 205 198 191 189 191 194 192 185 179 186 184 184 184
193 219 256 297 318 28 84 255 315 15 25 26 27 278 292 323 339 342 341 339 340 337 324 296 294 225 210 212 216 218 211 201 194 191 192 192 189 185 178 177 173 175 180 186
151 196 257 330 25 75 212 250 349 22 19 15 348 331 336 342 342 341 342 342 342 335 320 318 320 250 231 232 235 221 201 198 196 193 194 191 182 183 178 172 172 178 176 180
188 210 263 9 65 91 128 86 8 6 354 2 354 341 338 337 337 336 334 332 334 327 320 320 315 284 249 253 245 215 205 205 203 195 193 183 182 183 178 175 177 183 180 185
351 285 347 19 35 36 52 52 11 3 357 3 351 341 339 337 335 333 330 326 328 326 319 312 309 300 274 268 233 212 215 215 204 194 190 186 184 183 183 184 185 187 187 188
274 272 319 357 6 13 19 31 23 8 2 357 353 343 338 334 331 329 326 324 324 319 307 302 304 301 298 282 237 228 226 219 209 199 190 187 188 190 190 195 191 188 192 184
236 242 224 262 284 316 25 11 3 7 1 355 351 337 335 328 322 323 324 323 322 320 312 304 303 299 296 277 247 231 233 224 215 204 192 183 175 166 179 189 193 190 183 176
221 238 217 237 270 323 23 358 2 3 347 335 332 329 328 322 320 321 321 322 318 314 308 303 300 295 293 275 258 244 239 231 221 209 197 188 182 178 174 147 154 176 180 180
236 220 255 247 249 271 345 354 356 347 337 327 322 322 323 319 318 319 316 313 310 311 311 305 297 292 289 273 259 253 248 234 223 217 207 197 192 188 183 177 177 183 187 184
249 207 204 216 232 339 345 353 354 337 328 325 321 320 319 317 313 310 308 309 311 311 312 311 304 299 296 275 260 254 247 241 231 222 216 206 194 186 184 184 182 173 164 179
203 133 135 140 293 310 326 329 321 309 308 309 311 311 308 304 302 304 306 309 311 308 308 306 302 300 297 278 265 258 247 244 236 223 215 208 196 190 188 188 185 183 185 182
179 217 233 256 264 276 279 276 276 283 292 299 301 303 306 306 307 306 307 306 301 297 296 296 297 301 295 279 264 261 254 243 235 229 216 210 203 197 193 190 190 191 193 186
197 209 217 220 236 262 276 279 282 286 288 290 298 304 304 302 300 300 302 305 306 304 300 294 295 302 297 285 273 264 252 242 234 230 222 216 210 202 194 193 193 191 185 185
203 211 223 235 247 255 266 275 280 281 285 290 296 299 296 294 294 295 299 303 305 305 304 303 305 307 296 288 286 268 252 242 238 234 225 217 211 204 195 192 191 189 183 180
224 227 235 249 258 264 273 279 282 286 286 287 291 295 297 296 295 295 297 296 291 288 295 302 303 298 294 288 288 272 254 241 237 233 224 216 209 205 197 191 188 186 183 183
236 240 245 256 267 271 272 276 283 286 287 286 286 288 288 289 292 293 296 299 296 295 301 306 305 296 296 293 288 275 258 244 236 226 218 212 207 203 198 191 188 185 183 180
247 247 253 261 268 275 277 276 276 281 284 285 285 286 288 291 293 292 285 282 291 301 305 298 297 298 304 301 282 272 260 247 238 226 214 206 201 198 195 190 187 183 179 176
254 254 258 261 263 269 278 279 276 278 279 281 284 284 283 284 286 289 295 292 293 302 306 296 301 306 306 302 278 268 260 248 234 222 212 202 196 193 190 185 183 176 172 169
262 263 262 262 265 271 277 278 278 278 277 279 279 277 278 286 289 280 276 293 302 302 300 298 305 308 309 301 281 267 259 249 237 222 208 198 190 186 182 176 172 168 165 162
260 261 264 266 268 270 271 276 282 284 284 285 283 280 279 271 272 284 288 289 296 302 300 304 310 310 307 294 289 278 264 252 238 218 203 193 185 180 176 169 166 163 162 162
267 267 263 257 257 264 269 273 276 280 282 285 285 282 283 281 279 283 287 288 290 300 303 300 303 304 300 294 294 288 277 260 242 220 198 187 176 170 166 165 160 159 158 157
268 268 268 272 270 264 264 266 270 275 277 277 279 281 284 285 287 288 289 290 293 296 299 299 302 302 302 300 300 300 297 280 234 198 184 176 167 162 160 156 154 151 150 150
Height
1501 1496 1495 1495 1493 1491 1495 1499 1506 1500 1497 1490 1485 1481 1478 1475 1473 1472 1472 1472 1472 1472 1473 1473 1474 1475 1476 1478 1479 1481 1482 1483 1485 1486 1487 1488 1489 1490 1490 1490 1490 1490 1490 1489
1502 1495 1495 1496 1492 1491 1491 1491 1495 1494 1494 1485 1483 1479 1477 1475 1474 1472 1472 1471 1470 1470 1470 1470 1471 1472 1473 1474 1475 1477 1478 1480 1482 1483 1484 1485 1486 1487 1487 1487 1487 1487 1487 1487
1512 1503 1498 1504 1494 1491 1492 1491 1492 1496 1493 1484 1482 1480 1479 1477 1476 1474 1472 1471 1469 1467 1467 1467 1467 1468 1469 1470 1472 1473 1474 1476 1478 1479 1481 1482 1483 1484 1484 1485 1485 1485 1485 1485
1514 1509 1513 1504 1489 1489 1492 1494 1491 1490 1488 1485 1483 1481 1480 1479 1477 1474 1472 1470 1468 1465 1464 1463 1464 1464 1465 1467 1468 1469 1471 1472 1474 1475 1477 1478 1479 1480 1481 1482 1482 1482 1482 1482
1518 1516 1511 1498 1490 1488 1491 1498 1494 1491 1488 1485 1482 1480 1479 1479 1477 1475 1472 1469 1466 1464 1463 1461 1461 1461 1462 1463 1464 1465 1466 1467 1469 1471 1473 1474 1475 1476 1477 1478 1479 1479 1479 1479
1516 1515 1516 1503 1489 1485 1489 1502 1495 1492 1490 1487 1483 1488 1485 1480 1477 1473 1470 1468 1465 1463 1461 1460 1459 1459 1459 1459 1459 1460 1462 1463 1465 1467 1468 1470 1471 1472 1474 1474 1475 1476 1476 1476
1515 1516 1508 1497 1490 1488 1503 1505 1496 1493 1491 1489 1488 1490 1486 1481 1476 1473 1470 1467 1464 1461 1459 1458 1457 1456 1455 1455 1455 1456 1458 1459 1460 1462 1463 1465 1467 1468 1469 1471 1471 1472 1472 1473
1514 1516 1512 1496 1493 1498 1500 1496 1495 1493 1491 1489 1488 1486 1483 1479 1475 1472 1469 1465 1462 1459 1457 1456 1455 1453 1451 1451 1451 1453 1453 1454 1455 1457 1459 1460 1462 1464 1465 1466 1467 1468 1469 1469
1508 1509 1501 1497 1496 1496 1496 1495 1494 1492 1490 1488 1486 1484 1481 1477 1474 1471 1468 1465 1461 1458 1455 1453 1452 1451 1449 1448 1448 1448 1448 1449 1450 1452 1453 1455 1457 1458 1460 1461 1462 1463 1464 1465
1504 1501 1499 1498 1496 1496 1495 1494 1493 1491 1489 1486 1484 1482 1479 1476 1472 1469 1466 1463 1459 1456 1453 1450 1448 1447 1446 1445 1444 1443 1443 1443 1445 1446 1448 1449 1451 1453 1454 1456 1457 1459 1460 1461
1503 1500 1498 1497 1496 1495 1493 1492 1490 1488 1487 1484 1482 1479 1477 1474 1470 1467 1463 1460 1457 1453 1450 1447 1445 1443 1441 1440 1439 1438 1438 1438 1439 1440 1442 1443 1445 1447 1448 1450 1452 1454 1455 1456
1500 1496 1496 1496 1494 1493 1491 1489 1488 1486 1484 1482 1480 1477 1474 1471 1468 1464 1461 1457 1453 1450 1447 1443 1441 1438 1437 1435 1434 1433 1432 1432 1433 1434 1435 1437 1439 1441 1442 1445 1447 1448 1450 1452
1493 1493 1493 1492 1492 1490 1488 1487 1485 1483 1481 1479 1476 1474 1471 1467 1464 1461 1457 1453 1450 1446 1442 1439 1436 1434 1432 1430 1429 1428 1427 1427 1427 1427 1428 1430 1432 1434 1436 1438 1440 1442 1444 1446
1490 1490 1490 1489 1488 1487 1486 1484 1482 1480 1478 1476 1473 1470 1467 1463 1460 1456 1453 1449 1445 1441 1437 1434 1431 1428 1426 1425 1423 1422 1421 1420 1420 1421 1421 1423 1425 1427 1429 1431 1434 1435 1438 1440
1487 1487 1486 1485 1485 1484 1482 1480 1478 1476 1474 1471 1469 1466 1463 1459 1455 1452 1448 1444 1440 1436 1432 1428 1424 1422 1420 1418 1416 1415 1414 1413 1413 1414 1415 1416 1418 1420 1422 1425 1427 1430 1432 1434
1484 1483 1483 1482 1481 1480 1478 1476 1474 1472 1470 1467 1464 1461 1458 1455 1451 1447 1443 1439 1435 1430 1426 1422 1418 1415 1413 1411 1409 1408 1406 1406 1406 1406 1407 1408 1410 1412 1414 1417 1419 1422 1425 1428
1480 1480 1479 1478 1477 1475 1474 1472 1470 1468 1466 1463 1460 1457 1453 1449 1445 1441 1437 1433 1429 1425 1420 1416 1412 1409 1406 1404 1402 1400 1398 1398 1398 1398 1399 1400 1402 1404 1406 1409 1411 1414 1418 1421
1476 1476 1475 1474 1473 1471 1470 1468 1466 1464 1461 1458 1455 1451 1448 1444 1440 1435 1431 1426 1422 1417 1414 1410 1406 1402 1399 1396 1394 1392 1391 1390 1389 1389 1390 1392 1394 1396 1399 1401 1404 1408 1411 1415
1472 1471 1471 1470 1469 1467 1465 1463 1461 1459 1456 1453 1449 1446 1442 1438 1434 1430 1425 1421 1416 1410 1406 1402 1399 1395 1391 1388 1386 1384 1382 1381 1381 1381 1382 1384 1386 1388 1390 1393 1397 1400 1404 1408
1467 1467 1466 1465 1464 1463 1461 1458 1456 1453 1450 1447 1444 1440 1436 1432 1428 1424 1419 1414 1410 1406 1400 1396 1391 1387 1383 1381 1378 1376 1374 1373 1372 1372 1374 1375 1377 1379 1382 1385 1389 1393 1397 1401
1463 1462 1461 1460 1458 1457 1455 1453 1450 1447 1444 1441 1438 1434 1429 1425 1421 1417 1412 1407 1402 1399 1394 1389 1385 1380 1377 1373 1371 1368 1366 1365 1364 1364 1365 1367 1369 1372 1375 1378 1381 1385 1389 1394
1458 1457 1455 1454 1452 1451 1449 1447 1444 1441 1438 1435 1431 1428 1423 1418 1414 1410 1406 1402 1396 1392 1387 1382 1378 1374 1370 1366 1363 1360 1359 1357 1357 1357 1358 1360 1362 1364 1367 1371 1374 1378 1382 1387
1453 1451 1450 1448 1446 1444 1442 1440 1437 1434 1431 1428 1424 1420 1417 1412 1408 1403 1398 1394 1390 1385 1381 1376 1371 1367 1363 1359 1356 1353 1351 1350 1350 1350 1351 1353 1355 1358 1361 1364 1368 1372 1377 1381
1447 1445 1444 1442 1440 1437 1435 1432 1430 1427 1424 1421 1417 1414 1410 1406 1401 1397 1393 1388 1383 1379 1374 1369 1365 1360 1356 1352 1349 1347 1345 1344 1344 1344 1345 1347 1349 1352 1355 1359 1363 1367 1372 1377
1440 1439 1437 1435 1433 1431 1428 1426 1423 1420 1417 1413 1410 1407 1404 1400 1395 1390 1386 1381 1377 1373 1367 1363 1359 1354 1350 1347 1344 1342 1340 1339 1339 1339 1340 1342 1344 1347 1350 1354 1358 1363 1368 1373
1433 1432 1430 1428 1426 1424 1422 1419 1416 1413 1410 1406 1403 1400 1397 1393 1389 1385 1380 1376 1372 1367 1362 1358 1353 1349 1345 1342 1340 1338 1336 1335 1335 1335 1337 1339 1341 1344 1347 1351 1355 1359 1364 1369
1426 1424 1423 1421 1419 1417 1415 1412 1409 1406 1403 1400 1396 1393 1390 1386 1383 1379 1375 1370 1366 1362 1358 1353 1349 1346 1342 1339 1337 1335 1333 1332 1332 1332 1334 1336 1338 1341 1344 1348 1352 1357 1362 1366